SCP
0 0 0 0 0 0 0 0 0 0 0 0 0 0 0 0 0 0 0 0 0 0 0 0 0 0 0 0 0 0 0 0 0 0 0 0 0 0 0 0 0 0 0
0 0 0 0 0 0 0 0 0 0 0 0 0 0 0 0 0 0 0 0 0 0 0 0 0 0 0 0 0 0 0 0 0 0 0 0 0 0 0 0 0 0 0
0 0 0 0 0 0 0 0 0 0 0 0 0 0 0 0 0 0 0 0 0 0 1 0 0 0 0 0 0 0 0 0 0 0 0 0 0 0 0 0 0 0 0
0 0 0 0 0 0 0 0 0 0 0 0 0 0 0 0 0 0 0 0 1 1 1 2 1 1 1 0 0 0 0 0 0 0 0 0 0 0 0 0 0 0 0
0 0 0 0 0 0 0 0 0 0 0 0 0 0 0 0 0 0 0 0 0 1 1 1 2 2 1 1 1 1 1 0 0 0 0 0 0 0 0 0 0 0 0
0 0 0 0 0 0 0 0 0 0 0 0 0 0 0 0 0 1 0 0 0 0 0 0 0 1 1 1 1 1 0 0 0 1 1 0 0 0 0 0 0 0 0
0 0 0 0 0 0 0 0 0 0 0 0 0 0 0 0 0 0 0 0 0 0 0 0 0 0 1 1 1 1 0 0 1 0 0 0 0 0 0 0 0 0 0
0 0 0 0 0 0 0 0 0 0 0 0 0 0 0 0 0 0 0 0 0 0 0 0 0 1 1 1 1 0 0 0 0 0 0 0 0 0 0 0 0 0 0
0 0 0 0 0 0 0 0 0 0 0 0 0 0 0 0 0 0 0 0 0 0 0 0 0 0 0 1 1 0 0 0 0 0 0 0 0 0 0 0 0 0 0
0 0 0 0 0 0 0 0 0 0 0 -0 0 0 0 0 0 0 0 0 0 0 0 0 0 0 0 1 1 0 0 0 0 0 0 0 0 0 0 0 0 0 0
0 0 0 0 0 0 0 0 0 0 0 -0 0 0 0 0 0 0 0 0 0 0 0 0 0 0 0 0 0 0 0 0 0 0 0 0 0 0 0 0 0 0 0
0 0 0 0 0 0 0 0 0 0 0 0 -0 0 0 0 0 0 0 0 0 0 0 0 0 0 0 0 0 0 0 0 0 0 0 0 0 0 0 0 0 0 0
0 0 0 0 0 0 0 0 0 0 0 0 0 0 0 0 0 0 0 0 0 0 0 0 0 0 0 0 0 0 0 0 0 0 0 0 0 0 0 0 0 0 0
0 0 0 0 0 0 0 0 0 0 0 0 0 0 0 0 0 0 0 0 0 0 0 0 0 0 0 0 0 0 0 0 0 0 0 0 0 0 0 0 0 0 0
0 0 0 0 0 0 0 0 0 0 0 0 0 0 0 0 0 0 0 0 0 0 0 0 0 0 0 0 0 0 0 0 0 0 0 0 0 0 0 0 0 0 0
0 0 0 0 0 0 0 0 0 0 0 0 0 0 0 0 0 0 0 0 0 0 0 0 0 0 0 0 0 0 0 0 0 0 0 0 0 0 0 0 0 0 0
0 0 0 0 0 0 0 0 0 0 0 0 0 0 0 0 0 0 0 0 0 0 0 0 0 0 0 0 0 0 0 0 0 0 0 0 0 0 0 0 0 0 0
0 0 0 0 0 0 0 0 0 0 0 0 0 0 0 0 0 0 0 0 0 0 0 0 0 0 0 0 0 0 0 0 0 0 0 0 0 0 0 0 0 0 0
0 0 0 0 0 0 0 0 0 0 0 0 0 0 0 0 0 0 0 0 0 0 0 0 0 0 0 0 0 0 0 0 0 0 0 0 0 0 0 0 0 0 0
0 0 0 0 0 0 0 0 0 0 0 0 0 0 0 0 0 0 0 0 0 0 0 0 0 0 0 0 0 0 0 0 0 0 0 0 0 0 0 0 0 0 0
0 0 0 0 -0 0 0 0 0 0 0 0 0 0 0 0 0 0 0 0 0 0 0 0 0 0 0 0 0 0 0 0 0 0 0 0 0 0 0 0 0 0 0
0 0 0 -0 -0 -0 0 0 0 0 0 0 0 0 0 0 0 0 0 0 0 0 0 0 0 0 0 0 0 0 0 0 0 0 0 0 0 0 0 0 0 0 0
0 0 0 0 -0 0 -0 -0 0 0 0 0 0 0 0 0 0 0 0 0 -0 -0 0 0 0 0 0 0 0 0 0 0 0 0 0 0 0 0 0 0 0 0 -0
0 0 0 0 -0 -0 -0 -0 -0 0 0 0 0 0 0 0 0 0 0 0 0 0 0 0 0 0 0 -0 -0 0 -0 0 -0 -0 0 0 0 0 0 0 -0 0 -0
0 0 0 0 0 -0 -0 -0 0 0 0 0 0 0 0 0 0 0 0 0 0 0 0 0 0 0 -0 -0 -0 -0 0 0 0 0 0 -0 0 0 0 -0 -0 -0 -0
0 0 0 0 0 0 -0 0 -0 0 0 0 0 0 0 0 0 0 0 0 0 0 0 0 0 0 -0 -0 -0 0 0 0 0 -0 0 -0 0 -0 0 0 -0 -0 -0
Wind_Speed_500mb
26 30 27 29 30 34 36 34 35 38 37 37 37 34 29 28 23 19 19 19 21 21 24 23 21 19 13 21 26 29 21 23 22 23 24 25 26 25 25 27 32 37 32
31 26 27 26 29 33 36 37 36 35 36 39 35 30 26 25 25 23 21 19 17 20 16 17 23 18 10 13 19 23 24 28 28 28 31 29 30 28 27 31 40 29 34
37 35 29 28 27 27 27 24 25 27 28 31 33 32 30 30 29 30 32 32 28 18 17 19 13 10 19 19 21 22 25 28 31 29 23 25 29 28 27 30 38 25 20
47 39 37 36 30 27 26 27 21 17 22 30 30 26 22 22 25 28 26 25 26 27 26 23 19 16 20 23 26 23 27 28 26 24 24 24 23 25 24 41 29 22 22
41 40 44 42 43 38 30 25 20 18 11 19 21 21 19 18 18 18 17 15 13 18 20 18 16 18 18 19 21 25 26 20 18 22 24 23 23 25 19 16 17 16 25
29 32 36 41 43 43 41 32 18 3 7 17 25 22 19 15 9 4 2 2 6 9 11 12 12 14 14 20 18 18 20 24 26 22 21 28 24 18 11 17 21 27 26
46 44 42 43 47 49 47 44 29 19 7 11 30 38 24 12 11 2 5 1 2 7 10 13 15 18 18 17 17 17 17 18 16 14 12 14 11 11 15 16 18 22 20
52 56 53 34 31 35 46 49 56 67 63 38 50 39 19 25 4 8 8 4 15 10 9 11 12 14 13 10 6 6 8 7 4 2 6 8 10 14 17 18 18 23 31
49 56 59 55 50 46 46 49 47 48 69 97 64 37 14 8 13 15 13 9 9 10 7 5 8 8 6 2 3 3 4 6 7 7 5 9 12 13 14 18 24 28 30
55 57 54 55 58 59 51 35 35 41 31 42 48 58 48 39 18 17 33 27 25 21 12 9 6 4 3 5 10 7 6 8 6 6 2 6 13 18 20 23 29 33 33
68 67 66 64 56 57 53 42 34 31 41 30 37 49 42 27 32 43 29 31 25 20 22 18 8 5 5 7 12 13 3 2 4 4 7 8 14 17 26 30 33 33 32
70 70 74 67 65 59 55 50 42 34 30 37 29 45 35 30 35 37 33 30 17 19 14 14 11 11 9 9 12 11 4 4 3 8 9 12 19 23 23 24 27 26 29
77 76 76 75 65 63 62 57 52 46 36 29 30 33 30 37 35 41 34 27 17 17 13 12 10 12 11 10 10 11 8 5 14 12 15 16 17 23 21 22 29 31 32
69 63 57 55 56 51 54 57 56 53 44 41 34 31 30 30 34 27 26 22 15 19 20 16 16 15 12 11 7 7 6 7 10 13 17 17 15 18 17 22 25 27 29
72 76 67 55 51 44 43 44 48 49 46 46 46 50 47 41 37 38 38 34 25 21 18 17 15 20 20 16 12 10 10 10 10 19 17 10 10 12 16 20 21 25 29
54 57 58 64 55 52 48 47 48 49 51 52 49 51 59 57 50 50 49 50 44 29 30 20 20 26 26 21 17 12 10 12 12 16 14 10 11 14 19 25 29 32 29
47 50 54 50 59 64 53 46 48 48 46 46 45 45 57 68 63 58 58 59 56 49 30 31 26 23 29 24 14 13 9 8 6 13 15 12 12 18 22 25 31 33 28
47 44 41 41 44 44 54 63 61 58 52 47 43 40 38 38 41 38 49 54 53 53 46 36 34 30 30 22 18 16 12 9 5 8 11 10 12 16 20 25 27 32 34
47 42 40 40 37 35 37 40 42 46 48 46 41 37 36 35 37 35 40 45 46 47 47 40 42 36 28 25 25 22 19 15 12 1 7 5 12 18 21 26 28 28 26
40 42 39 39 34 36 32 36 38 41 45 46 42 36 35 32 33 30 31 38 42 46 45 44 45 37 28 31 32 30 28 18 11 7 3 7 13 17 23 27 29 26 24
41 42 34 38 33 33 33 29 33 35 34 36 39 35 31 29 32 30 24 27 42 43 51 46 51 42 35 40 46 41 28 23 17 12 5 7 12 19 19 24 28 32 25
38 33 34 38 31 29 32 29 29 31 33 33 36 33 31 29 28 26 29 29 40 48 57 59 57 44 33 47 48 43 34 33 25 19 10 8 13 19 22 30 33 38 40
33 29 29 27 26 23 23 26 28 28 28 30 32 35 33 26 23 20 23 33 38 50 51 46 55 40 35 53 47 47 39 27 27 16 15 14 13 14 22 31 34 41 44
35 29 26 26 27 26 30 30 29 31 35 31 34 31 31 35 28 22 17 16 44 50 53 48 38 25 24 37 36 26 28 30 21 24 17 16 11 11 15 26 35 43 45
34 25 25 23 21 28 21 25 28 34 30 29 29 30 31 40 30 23 19 24 50 49 47 36 37 31 22 27 20 18 31 31 30 26 18 14 9 6 11 23 33 45 44
34 24 23 24 26 27 25 24 27 30 32 29 30 30 34 43 38 28 26 23 55 64 64 55 44 39 32 26 18 15 25 41 37 28 18 12 6 2 6 15 24 40 39
Wind_Direction_500mb
282 291 298 303 302 297 294 294 285 284 278 270 274 278 275 270 272 260 260 261 272 266 254 244 250 257 285 278 275 271 282 292 292 286 289 285 281 284 292 298 297 288 279
299 300 297 303 302 295 293 289 282 276 268 268 269 275 274 274 272 268 267 264 261 265 259 255 270 269 257 284 275 276 277 278 288 287 288 282 280 282 286 293 283 286 287
308 304 300 287 281 281 279 273 270 266 262 263 267 270 275 274 272 271 269 268 265 260 250 246 265 267 244 270 284 273 272 281 293 288 285 285 279 282 279 277 255 286 281
312 305 294 289 277 260 251 249 246 248 261 262 264 267 269 272 270 274 283 278 267 263 257 256 254 228 220 247 269 278 281 281 283 283 282 275 271 280 271 239 258 272 264
301 302 297 286 280 269 248 235 227 236 274 295 276 267 274 269 280 287 298 292 259 245 244 238 235 226 235 249 261 280 283 285 285 287 282 274 258 265 218 254 282 248 284
317 312 299 288 281 263 238 225 222 284 338 342 314 301 306 271 237 269 227 153 153 167 185 190 198 210 225 255 267 274 275 291 288 284 275 267 254 238 256 291 296 286 280
313 318 312 286 281 278 278 265 248 318 295 333 326 315 336 156 310 330 192 247 163 159 182 202 212 227 240 257 263 278 287 293 290 292 267 250 207 236 260 278 279 273 269
304 310 310 291 289 295 296 279 274 255 286 307 311 319 308 301 216 348 222 261 306 287 217 217 215 213 226 233 262 307 301 303 310 343 131 170 224 265 267 262 276 276 288
291 294 303 292 300 304 301 292 279 283 258 264 282 278 308 305 268 309 309 342 321 272 241 183 158 158 153 127 83 92 62 72 100 139 203 245 263 281 283 283 293 295 293
275 281 284 284 287 294 300 288 283 268 278 273 262 272 259 269 271 278 274 275 290 265 252 235 195 167 156 139 127 153 122 91 73 73 125 293 305 290 299 302 301 299 305
272 275 276 274 274 281 287 278 273 278 262 260 246 260 261 264 266 258 242 259 253 248 250 249 220 193 184 157 145 137 119 340 329 316 316 298 307 304 308 310 313 315 320
283 278 275 277 273 271 273 273 271 266 262 256 246 242 229 237 246 250 234 228 247 240 231 236 206 181 172 163 152 160 172 245 272 275 288 302 307 310 310 312 318 319 311
291 285 276 274 271 267 261 260 260 259 255 254 247 251 241 235 238 238 243 256 238 238 221 209 172 170 166 172 170 181 186 250 260 262 294 305 312 325 320 332 322 317 313
289 289 289 279 272 264 256 254 257 257 251 252 243 237 236 247 253 251 254 241 215 223 227 211 174 177 179 199 194 201 219 261 301 295 302 305 314 322 335 331 328 327 324
287 285 283 277 270 260 252 251 248 247 247 247 249 253 252 247 245 248 257 253 240 225 222 205 187 192 201 210 220 241 269 295 328 325 317 336 345 339 338 333 332 328 327
298 295 285 269 263 258 252 252 250 254 261 264 258 252 257 261 258 256 250 250 251 237 236 236 227 201 210 213 216 238 275 319 325 329 331 347 349 344 350 346 342 340 337
301 299 296 287 271 261 254 247 250 260 262 264 260 261 260 262 266 260 245 245 243 244 238 228 221 209 207 218 222 239 256 281 19 341 344 338 355 353 349 349 348 344 348
299 294 295 286 282 270 260 254 251 257 254 253 256 257 255 246 244 244 235 232 235 237 235 225 210 204 206 210 226 230 234 263 316 8 317 345 341 2 348 359 8 10 6
304 292 289 292 282 274 263 257 249 244 246 248 252 249 245 238 233 231 227 224 220 216 220 220 206 201 202 209 219 227 232 243 248 163 295 331 14 9 12 17 12 8 3
301 299 290 285 278 272 265 258 251 246 250 245 237 242 236 233 222 217 219 219 213 209 205 207 207 193 212 215 220 232 226 222 219 211 212 23 29 36 28 23 15 6 1
309 294 283 288 273 270 271 247 249 246 241 233 232 232 229 234 218 223 218 223 211 206 200 200 191 182 199 213 216 220 215 219 199 194 188 63 57 43 31 29 22 7 8
304 302 285 284 267 268 263 254 250 234 233 228 224 222 223 228 228 231 223 227 215 201 193 190 185 190 221 225 214 215 213 201 197 195 165 105 76 52 33 31 22 21 23
310 301 284 285 269 273 256 242 239 226 226 223 222 224 222 219 204 208 233 222 211 197 203 197 192 198 215 222 213 211 214 224 218 184 155 126 91 50 32 32 25 21 24
311 295 292 273 269 267 243 233 241 228 226 224 224 226 220 203 199 214 233 224 181 189 198 197 198 174 199 209 203 213 210 215 183 162 143 144 115 67 28 30 22 23 21
324 292 285 277 262 256 237 239 224 224 214 215 219 216 208 197 193 210 197 175 179 185 176 171 160 157 157 169 180 213 205 190 174 158 152 143 114 97 36 23 19 20 21
336 310 287 275 267 262 238 228 215 213 209 210 202 196 188 180 188 196 183 161 161 157 151 153 160 161 154 145 161 203 200 180 166 155 169 150 173 89 7 4 17 17 22
Wind_Speed_850mb
26 30 27 29 30 34 36 34 35 38 37 37 37 34 29 28 23 19 19 19 21 21 24 23 21 19 13 21 26 29 21 23 22 23 24 25 26 25 25 27 32 37 32
31 26 27 26 29 33 36 37 36 35 36 39 35 30 26 25 25 23 21 19 17 20 16 17 23 18 10 13 19 23 24 28 28 28 31 29 30 28 27 31 40 29 34
37 35 29 28 27 27 27 24 25 27 28 31 33 32 30 30 29 30 32 32 28 18 17 19 13 10 19 19 21 22 25 28 31 29 23 25 29 28 27 30 38 25 20
47 39 37 36 30 27 26 27 21 17 22 30 30 26 22 22 25 28 26 25 26 27 26 23 19 16 20 23 26 23 27 28 26 24 24 24 23 25 24 41 29 22 22
41 40 44 42 43 38 30 25 20 18 11 19 21 21 19 18 18 18 17 15 13 18 20 18 16 18 18 19 21 25 26 20 18 22 24 23 23 25 19 16 17 16 25
29 32 36 41 43 43 41 32 18 3 7 17 25 22 19 15 9 4 2 2 6 9 11 12 12 14 14 20 18 18 20 24 26 22 21 28 24 18 11 17 21 27 26
46 44 42 43 47 49 47 44 29 19 7 11 30 38 24 12 11 2 5 1 2 7 10 13 15 18 18 17 17 17 17 18 16 14 12 14 11 11 15 16 18 22 20
52 56 53 34 31 35 46 49 56 67 63 38 50 39 19 25 4 8 8 4 15 10 9 11 12 14 13 10 6 6 8 7 4 2 6 8 10 14 17 18 18 23 31
49 56 59 55 50 46 46 49 47 48 69 97 64 37 14 8 13 15 13 9 9 10 7 5 8 8 6 2 3 3 4 6 7 7 5 9 12 13 14 18 24 28 30
55 57 54 55 58 59 51 35 35 41 31 42 48 58 48 39 18 17 33 27 25 21 12 9 6 4 3 5 10 7 6 8 6 6 2 6 13 18 20 23 29 33 33
68 67 66 64 56 57 53 42 34 31 41 30 37 49 42 27 32 43 29 31 25 20 22 18 8 5 5 7 12 13 3 2 4 4 7 8 14 17 26 30 33 33 32
70 70 74 67 65 59 55 50 42 34 30 37 29 45 35 30 35 37 33 30 17 19 14 14 11 11 9 9 12 11 4 4 3 8 9 12 19 23 23 24 27 26 29
77 76 76 75 65 63 62 57 52 46 36 29 30 33 30 37 35 41 34 27 17 17 13 12 10 12 11 10 10 11 8 5 14 12 15 16 17 23 21 22 29 31 32
69 63 57 55 56 51 54 57 56 53 44 41 34 31 30 30 34 27 26 22 15 19 20 16 16 15 12 11 7 7 6 7 10 13 17 17 15 18 17 22 25 27 29
72 76 67 55 51 44 43 44 48 49 46 46 46 50 47 41 37 38 38 34 25 21 18 17 15 20 20 16 12 10 10 10 10 19 17 10 10 12 16 20 21 25 29
54 57 58 64 55 52 48 47 48 49 51 52 49 51 59 57 50 50 49 50 44 29 30 20 20 26 26 21 17 12 10 12 12 16 14 10 11 14 19 25 29 32 29
47 50 54 50 59 64 53 46 48 48 46 46 45 45 57 68 63 58 58 59 56 49 30 31 26 23 29 24 14 13 9 8 6 13 15 12 12 18 22 25 31 33 28
47 44 41 41 44 44 54 63 61 58 52 47 43 40 38 38 41 38 49 54 53 53 46 36 34 30 30 22 18 16 12 9 5 8 11 10 12 16 20 25 27 32 34
47 42 40 40 37 35 37 40 42 46 48 46 41 37 36 35 37 35 40 45 46 47 47 40 42 36 28 25 25 22 19 15 12 1 7 5 12 18 21 26 28 28 26
40 42 39 39 34 36 32 36 38 41 45 46 42 36 35 32 33 30 31 38 42 46 45 44 45 37 28 31 32 30 28 18 11 7 3 7 13 17 23 27 29 26 24
41 42 34 38 33 33 33 29 33 35 34 36 39 35 31 29 32 30 24 27 42 43 51 46 51 42 35 40 46 41 28 23 17 12 5 7 12 19 19 24 28 32 25
38 33 34 38 31 29 32 29 29 31 33 33 36 33 31 29 28 26 29 29 40 48 57 59 57 44 33 47 48 43 34 33 25 19 10 8 13 19 22 30 33 38 40
33 29 29 27 26 23 23 26 28 28 28 30 32 35 33 26 23 20 23 33 38 50 51 46 55 40 35 53 47 47 39 27 27 16 15 14 13 14 22 31 34 41 44
35 29 26 26 27 26 30 30 29 31 35 31 34 31 31 35 28 22 17 16 44 50 53 48 38 25 24 37 36 26 28 30 21 24 17 16 11 11 15 26 35 43 45
34 25 25 23 21 28 21 25 28 34 30 29 29 30 31 40 30 23 19 24 50 49 47 36 37 31 22 27 20 18 31 31 30 26 18 14 9 6 11 23 33 45 44
34 24 23 24 26 27 25 24 27 30 32 29 30 30 34 43 38 28 26 23 55 64 64 55 44 39 32 26 18 15 25 41 37 28 18 12 6 2 6 15 24 40 39
Wind_Direction_850mb
282 291 298 303 302 297 294 294 285 284 278 270 274 278 275 270 272 260 260 261 272 266 254 244 250 257 285 278 275 271 282 292 292 286 289 285 281 284 292 298 297 288 279
299 300 297 303 302 295 293 289 282 276 268 268 269 275 274 274 272 268 267 264 261 265 259 255 270 269 257 284 275 276 277 278 288 287 288 282 280 282 286 293 283 286 287
308 304 300 287 281 281 279 273 270 266 262 263 267 270 275 274 272 271 269 268 265 260 250 246 265 267 244 270 284 273 272 281 293 288 285 285 279 282 279 277 255 286 281
312 305 294 289 277 260 251 249 246 248 261 262 264 267 269 272 270 274 283 278 267 263 257 256 254 228 220 247 269 278 281 281 283 283 282 275 271 280 271 239 258 272 264
301 302 297 286 280 269 248 235 227 236 274 295 276 267 274 269 280 287 298 292 259 245 244 238 235 226 235 249 261 280 283 285 285 287 282 274 258 265 218 254 282 248 284
317 312 299 288 281 263 238 225 222 284 338 342 314 301 306 271 237 269 227 153 153 167 185 190 198 210 225 255 267 274 275 291 288 284 275 267 254 238 256 291 296 286 280
313 318 312 286 281 278 278 265 248 318 295 333 326 315 336 156 310 330 192 247 163 159 182 202 212 227 240 257 263 278 287 293 290 292 267 250 207 236 260 278 279 273 269
304 310 310 291 289 295 296 279 274 255 286 307 311 319 308 301 216 348 222 261 306 287 217 217 215 213 226 233 262 307 301 303 310 343 131 170 224 265 267 262 276 276 288
291 294 303 292 300 304 301 292 279 283 258 264 282 278 308 305 268 309 309 342 321 272 241 183 158 158 153 127 83 92 62 72 100 139 203 245 263 281 283 283 293 295 293
275 281 284 284 287 294 300 288 283 268 278 273 262 272 259 269 271 278 274 275 290 265 252 235 195 167 156 139 127 153 122 91 73 73 125 293 305 290 299 302 301 299 305
272 275 276 274 274 281 287 278 273 278 262 260 246 260 261 264 266 258 242 259 253 248 250 249 220 193 184 157 145 137 119 340 329 316 316 298 307 304 308 310 313 315 320
283 278 275 277 273 271 273 273 271 266 262 256 246 242 229 237 246 250 234 228 247 240 231 236 206 181 172 163 152 160 172 245 272 275 288 302 307 310 310 312 318 319 311
291 285 276 274 271 267 261 260 260 259 255 254 247 251 241 235 238 238 243 256 238 238 221 209 172 170 166 172 170 181 186 250 260 262 294 305 312 325 320 332 322 317 313
289 289 289 279 272 264 256 254 257 257 251 252 243 237 236 247 253 251 254 241 215 223 227 211 174 177 179 199 194 201 219 261 301 295 302 305 314 322 335 331 328 327 324
287 285 283 277 270 260 252 251 248 247 247 247 249 253 252 247 245 248 257 253 240 225 222 205 187 192 201 210 220 241 269 295 328 325 317 336 345 339 338 333 332 328 327
298 295 285 269 263 258 252 252 250 254 261 264 258 252 257 261 258 256 250 250 251 237 236 236 227 201 210 213 216 238 275 319 325 329 331 347 349 344 350 346 342 340 337
301 299 296 287 271 261 254 247 250 260 262 264 260 261 260 262 266 260 245 245 243 244 238 228 221 209 207 218 222 239 256 281 19 341 344 338 355 353 349 349 348 344 348
299 294 295 286 282 270 260 254 251 257 254 253 256 257 255 246 244 244 235 232 235 237 235 225 210 204 206 210 226 230 234 263 316 8 317 345 341 2 348 359 8 10 6
304 292 289 292 282 274 263 257 249 244 246 248 252 249 245 238 233 231 227 224 220 216 220 220 206 201 202 209 219 227 232 243 248 163 295 331 14 9 12 17 12 8 3
301 299 290 285 278 272 265 258 251 246 250 245 237 242 236 233 222 217 219 219 213 209 205 207 207 193 212 215 220 232 226 222 219 211 212 23 29 36 28 23 15 6 1
309 294 283 288 273 270 271 247 249 246 241 233 232 232 229 234 218 223 218 223 211 206 200 200 191 182 199 213 216 220 215 219 199 194 188 63 57 43 31 29 22 7 8
304 302 285 284 267 268 263 254 250 234 233 228 224 222 223 228 228 231 223 227 215 201 193 190 185 190 221 225 214 215 213 201 197 195 165 105 76 52 33 31 22 21 23
310 301 284 285 269 273 256 242 239 226 226 223 222 224 222 219 204 208 233 222 211 197 203 197 192 198 215 222 213 211 214 224 218 184 155 126 91 50 32 32 25 21 24
311 295 292 273 269 267 243 233 241 228 226 224 224 226 220 203 199 214 233 224 181 189 198 197 198 174 199 209 203 213 210 215 183 162 143 144 115 67 28 30 22 23 21
324 292 285 277 262 256 237 239 224 224 214 215 219 216 208 197 193 210 197 175 179 185 176 171 160 157 157 169 180 213 205 190 174 158 152 143 114 97 36 23 19 20 21
336 310 287 275 267 262 238 228 215 213 209 210 202 196 188 180 188 196 183 161 161 157 151 153 160 161 154 145 161 203 200 180 166 155 169 150 173 89 7 4 17 17 22